Location: Fort Wayne
(41.1310°N, 85.1290°W)
Time: 03:58:04
(UTC-05:00)

Daily predictions for brighter satellites

Satellite Brightness Start Highest point End
(mag) Time Altitude Azimuth Time Altitude Azimuth Time Altitude Azimuth
Atlas Centaur 2 4.4 04:06:46 24° SSE 04:06:46 24° SSE 04:10:30 10° SE
USA 229 DEB 4.0 04:29:21 64° SE 04:29:21 64° SE 04:35:30 10° SE
USA 229 4.0 04:29:24 65° ESE 04:29:24 65° ESE 04:35:35 10° SE
ATLAS 5 CENTAUR R/B 3.8 04:48:13 18° SSE 04:50:14 24° ESE 04:54:05 10° ENE
CZ-4B DEB 4.4 04:56:36 10° NNE 05:01:22 66° NNE 05:01:22 66° NNE
Hubble Space Telescope 3.5 05:07:10 11° SSE 05:07:10 11° SSE 05:07:40 10° SSE
Cosmos 2233 Rocket 3.9 05:06:21 12° N 05:12:03 81° E 05:18:11 10° S
BREEZE-M DEB (TANK) 3.8 05:22:37 42° NNE 05:22:37 42° NNE 05:25:30 10° ENE
IDEFIX/ARIANE 42P 4.5 05:17:55 10° NE 05:22:26 29° E 05:26:55 10° SSE
IRS-1C Rocket 3.9 05:19:38 10° N 05:24:54 78° WNW 05:30:08 10° SSW
Cosmos 1900 4.3 05:25:04 69° SW 05:25:42 84° WNW 05:30:54 10° NNE
Cosmos 1703 Rocket 3.7 05:24:54 49° NNE 05:25:56 70° E 05:30:14 10° SSE
Cosmos 1869 Rocket 4.0 05:26:07 10° S 05:30:24 60° E 05:34:46 10° NNE
SL-16 R/B 3.7 05:33:13 21° NNW 05:33:13 21° NNW 05:35:34 10° N
Cosmos 1606 2.9 05:31:09 70° E 05:31:10 70° E 05:34:58 10° SSE
Okean-O 3.4 05:31:13 10° NNE 05:35:34 51° E 05:39:52 10° S
Meteor 2-3 Rocket 3.8 05:35:27 51° W 05:35:36 51° WNW 05:41:09 10° N
Cosmos 1603 3.5 05:32:57 31° SW 05:35:44 72° WNW 05:41:27 10° NNE
Lacrosse 4 Rocket 4.0 05:33:11 10° SSE 05:36:36 23° ESE 05:39:58 10° ENE
USA 32 4.0 05:34:27 10° SSW 05:39:35 59° W 05:44:46 10° N
USA 116 4.4 05:36:50 10° S 05:42:10 77° WSW 05:46:47 14° NNW
Intercosmos 25 3.4 05:43:16 36° N 05:44:43 85° E 05:49:39 10° S
CZ-2C R/B 4.1 05:40:31 10° NNE 05:45:15 36° E 05:49:51 10° SSE
Lacrosse 5 rocket 3.0 05:47:20 25° NNW 05:47:20 25° NNW 05:50:30 10° NNE
Meteor 1-10 Rocket 4.3 05:41:16 10° N 05:47:15 88° E 05:53:10 10° S
COSMO-SKYMED 1 2.7 05:45:44 10° SSE 05:50:02 74° ENE 05:54:23 10° N
CZ-4B R/B 3.6 05:46:39 10° N 05:51:55 41° WNW 05:54:52 23° WSW
Cosmos 2369 Rocket 2.2 05:47:44 18° NNW 05:52:01 83° ENE 05:57:37 10° SSE
Atlas Centaur 2 4.4 05:49:24 15° SW 05:52:32 19° SSW 05:58:03 10° SSE
NOSS 3-1 (C) 4.2 05:51:32 25° NW 05:56:15 59° WSW 06:04:31 10° SSE
DELTA 2 R/B (1) 4.4 06:01:59 26° WSW 06:04:14 36° SSW 06:09:18 10° SE
Cosmos 405 Rocket 2.5 06:04:33 22° NNW 06:06:47 68° W 06:10:32 10° S
Meteor 1-28 Rocket 4.3 06:04:23 10° SSW 06:06:52 27° WSW 06:06:52 27° WSW
ATLAS 2AS CENTAUR R/B 4.2 06:01:16 10° NNW 06:08:30 35° NE 06:15:18 10° ESE
Cosmos 1777 Rocket 4.0 06:03:24 10° NNW 06:08:38 85° ENE 06:13:50 10° SSE
Cosmos 1782 3.2 06:08:21 35° WNW 06:09:08 39° W 06:12:49 10° SSW
MTI 4.1 06:06:17 10° S 06:09:12 41° WSW 06:09:12 41° WSW
Cosmos 1072 Rocket 4.5 06:05:12 10° N 06:11:37 74° W 06:17:58 10° S
Okean 1-7 3.2 06:08:52 14° NNW 06:12:25 50° W 06:16:36 10° SSW
Aureole 3 3.1 06:13:57 10° S 06:16:55 60° E 06:19:53 10° NNE
Abrixas rocket 3.0 06:16:56 26° NNW 06:18:12 39° NNE 06:21:15 10° E
Cosmos 2034 Rocket 4.0 06:12:13 10° N 06:18:30 85° E 06:24:40 10° S
Cosmos 1943 Rocket 2.2 06:13:00 10° NNW 06:18:44 86° ENE 06:24:23 10° SSE
Feng Yun 1-1 Rocket 4.4 06:12:56 10° N 06:18:46 60° WNW 06:24:32 10° SSW
NOSS 3-1 (A) 4.3 06:16:05 15° NW 06:22:27 55° WSW 06:30:38 10° SSE
Cosmos 968 Rocket 4.4 06:22:59 20° WNW 06:25:24 28° W 06:29:49 10° SSW
EO 1 Del DPAF 3.8 06:23:56 10° SSW 06:27:29 36° W 06:30:30 13° NW
NOAA 6 4.2 06:23:01 10° N 06:27:54 46° WNW 06:32:46 10° SW
PAYLOAD A 4.1 06:23:47 10° N 06:29:00 63° WNW 06:34:20 10° SSW
ATLAS 5 CENTAUR R/B 2.2 06:30:12 10° WSW 06:34:34 41° NW 06:39:22 10° NNE
Cosmos 1825 4.1 06:36:46 13° NW 06:36:46 13° NW 06:37:30 10° NNW
Cosmos 1733 Rocket 3.0 06:31:02 10° S 06:35:21 88° ESE 06:39:45 10° N
SL-8 R/B 4.3 06:32:22 18° WNW 06:35:31 41° NNW 06:40:03 10° ENE
Cosmos 1943 3.5 06:31:18 10° SW 06:36:43 44° WNW 06:42:08 10° NNE
SKYMED 2 4.3 06:34:18 10° SSW 06:38:11 32° W 06:42:05 10° NNW
Cosmos 371 Rocket 4.1 06:38:18 10° S 06:43:01 56° ESE 06:47:45 10° NNE
Shenzhou-11 Module 4.5 06:41:53 10° SSW 06:44:17 22° SSE 06:46:44 10° E
Cosmos 1862 4.0 06:41:27 10° SW 06:44:59 31° WNW 06:48:33 10° NNW
Cosmos 1464 Rocket 4.4 06:39:34 10° NNW 06:45:27 43° W 06:51:23 10° SSW
USA 215 4.3 06:41:00 10° NE 06:47:19 50° SE 06:53:37 10° SSW
SAR-Lupe-3 4.5 06:45:30 10° SSE 06:49:04 83° WSW 06:52:40 10° NNW
Thor Agena Rocket 3.5 06:47:29 10° S 06:52:33 73° WSW 06:57:36 10° NNW
Genesis I 3.9 06:51:31 10° WSW 06:55:01 32° NW 06:58:37 10° NNE
PSLV R/B 3.2 06:55:05 11° W 06:58:04 69° SSW 07:01:14 10° ESE
Sich 1 Rocket 4.4 06:55:39 10° S 06:59:56 55° E 07:04:14 10° NNE
Tsikada Rocket 4.1 06:55:31 10° SSW 07:01:41 59° W 07:07:49 10° N
IDEFIX/ARIANE 42P 3.2 06:57:24 10° N 07:02:01 34° WNW 07:06:37 10° SW
Cosmos 332 Rocket 3.7 07:04:08 10° SSW 07:08:54 70° WNW 07:13:43 10° NNE
